Overview Statistics Trail Chart Weather Telemetry Raw packets
 

This is the latest recevied weather packets stored in our database for station/object KC9NPJ-13. If no packets are shown the sender has not sent any weather packets the latest 10 day(s).

<< 22 23 24 25 26 27 28 >>
Time Temp. Humidity Pressure Rain* Wind** Luminosity Snow
1788464720 38.33° C 41% 1014 hPa 0 mm - - -
1788464420 38.33° C 40% 1014 hPa 0 mm - - -
1788464120 38.33° C 44% 1014 hPa 0 mm - - -
1788463820 38.33° C 40% 1014.2 hPa 0 mm - - -
1788463520 38.33° C 40% 1014.2 hPa 0 mm - - -
1788463220 38.33° C 41% 1014.4 hPa 0 mm - - -
1788462920 37.78° C 44% 1014.5 hPa 0 mm - - -
1788462620 37.22° C 44% 1014.5 hPa 0 mm - - -
1788462320 36.67° C 45% 1014.6 hPa 0 mm - - -
1788462020 36.67° C 43% 1014.6 hPa 0 mm - - -
1788461720 37.22° C 43% 1014.5 hPa 0 mm - - -
1788461420 37.22° C 43% 1014.6 hPa 0 mm - - -
1788461120 37.78° C 44% 1014.5 hPa 0 mm - - -
1788460820 37.22° C 44% 1014.6 hPa 0 mm - - -
1788460520 36.67° C 45% 1014.7 hPa 0 mm - - -
1788460220 36.11° C 46% 1014.7 hPa 0 mm - - -
1788459920 36.11° C 45% 1014.9 hPa 0 mm - - -
1788459620 36.11° C 46% 1014.9 hPa 0 mm - - -
1788459320 36.67° C 44% 1015 hPa 0 mm - - -
1788459020 36.67° C 44% 1015.1 hPa 0 mm - - -
1788458720 37.22° C 43% 1015.1 hPa 0 mm - - -
1788458420 37.78° C 42% 1015 hPa 0 mm - - -
1788458120 37.22° C 43% 1015 hPa 0 mm - - -
1788457820 36.67° C 44% 1015.2 hPa 0 mm - - -
1788457520 36.67° C 45% 1015.3 hPa 0 mm - - -

* Rain latest hour (hover to see other rain measurements)
** Current wind speed in m/s (hover to see current wind gust speed)